Probability
0 0 0 0 0 0 0 0 0 0 0 0 0 0 0 0 0 0 1 2 3 2 3 3 3 4 5 4 4 5 5 5 4 3 3 3 3 3 3 1 0 0 0
0 0 0 0 0 0 0 0 0 0 0 0 0 0 0 0 0 0 1 2 3 3 3 4 4 5 5 5 4 5 5 4 3 3 3 3 3 3 3 2 1 0 0
0 0 0 0 0 0 0 0 0 0 0 0 0 0 0 0 0 0 0 1 2 3 4 5 5 5 6 6 6 6 6 4 3 3 3 3 3 3 3 3 1 0 0
0 0 0 0 0 0 0 0 0 0 0 0 0 0 0 0 0 0 0 0 0 1 2 3 4 5 6 8 7 8 8 6 4 3 3 3 3 3 3 3 2 1 0
1 0 0 0 0 0 0 0 0 0 0 0 0 0 0 0 0 1 1 0 0 0 1 2 2 3 4 7 8 8 9 9 7 5 5 4 3 3 3 3 3 2 1
2 1 0 0 0 0 0 0 0 0 0 0 0 0 0 0 1 2 2 1 0 0 0 1 1 1 2 5 7 8 9 10 10 9 7 6 5 5 4 4 4 3 1
2 1 0 0 0 0 0 0 0 0 0 0 0 0 0 0 1 2 2 1 0 0 0 1 1 1 1 3 5 6 7 8 9 10 9 9 9 8 7 6 5 4 2
3 2 1 0 0 0 0 0 0 0 0 0 0 0 0 0 0 1 1 1 1 1 1 2 2 2 1 1 2 4 4 5 7 9 9 10 11 11 9 8 7 7 5
3 3 2 1 0 0 0 0 0 0 0 1 1 1 1 1 1 1 2 2 2 2 3 3 3 3 3 2 1 1 2 4 6 7 8 9 11 11 10 9 9 9 8
4 4 3 2 1 0 0 0 0 1 1 2 2 2 2 2 2 2 2 3 3 3 3 3 3 4 5 4 2 1 2 3 4 5 6 8 9 10 10 10 10 9 8
4 4 4 3 2 1 0 0 1 2 3 3 3 3 3 3 3 3 3 3 3 3 3 3 3 3 4 4 3 2 2 2 2 3 4 7 8 9 11 12 12 9 6
4 4 5 5 5 4 2 2 2 3 3 3 3 3 3 3 3 3 4 4 4 3 3 3 3 3 3 3 3 3 3 2 1 1 2 4 6 8 11 12 11 9 6
6 6 6 6 7 7 6 5 4 3 3 3 3 3 3 3 3 4 4 4 3 3 3 3 3 3 3 3 2 2 3 2 1 0 0 1 3 5 8 8 8 8 7
6 6 7 7 8 9 9 8 6 5 4 3 3 3 3 3 4 4 4 3 3 3 3 3 3 3 3 3 2 2 2 1 0 0 0 0 0 2 3 3 4 5 6
7 8 9 9 9 9 10 9 8 7 6 5 4 3 3 4 4 4 3 3 3 3 3 3 3 3 3 3 2 1 0 0 0 0 0 0 0 0 0 0 1 1 2
9 10 11 11 11 11 11 10 10 10 9 7 6 4 4 4 4 3 3 3 3 3 3 3 3 3 3 2 1 0 0 0 0 0 0 0 0 0 0 0 0 0 0
9 11 12 12 12 12 12 12 11 12 11 10 9 6 4 3 3 2 2 2 3 3 3 3 3 2 1 1 1 1 0 0 0 0 0 0 0 0 0 0 0 0 0
9 9 11 12 12 12 12 12 12 12 12 12 12 10 7 4 3 2 2 2 2 2 3 3 3 1 0 0 1 1 1 1 1 0 0 0 0 0 0 0 0 0 0
8 7 7 8 10 11 11 11 11 12 12 12 13 13 11 9 6 6 5 4 4 3 3 3 2 1 0 0 1 2 3 3 2 1 0 0 0 0 0 0 0 0 0
7 7 5 6 8 9 9 9 10 11 11 11 12 14 14 12 11 11 9 8 7 6 5 5 4 1 0 1 1 3 4 5 4 1 0 0 0 0 0 0 0 0 0
8 8 7 6 6 7 7 8 9 11 11 11 11 13 13 12 12 12 10 10 10 9 7 7 6 3 2 3 3 3 4 4 3 2 2 1 0 0 0 0 0 0 0
10 11 11 8 6 6 5 6 8 10 11 10 11 12 13 12 11 9 8 8 9 9 8 8 8 6 5 5 4 3 3 3 3 3 3 2 1 0 0 0 0 0 0
12 14 13 11 8 6 4 3 5 7 10 10 10 11 13 12 10 9 7 6 7 7 8 10 10 9 8 8 6 5 4 3 4 4 4 2 1 0 0 0 0 0 0
13 13 13 12 10 8 5 2 3 5 8 9 9 10 12 12 10 8 8 9 9 7 7 9 10 9 9 9 8 6 5 4 3 4 4 3 2 1 0 0 0 0 0
13 13 12 11 11 10 7 3 2 4 6 7 7 8 10 10 8 7 9 11 12 10 7 7 8 8 8 8 7 6 6 4 4 4 5 5 3 2 1 0 0 0 0
13 12 12 12 12 11 8 4 2 4 5 5 5 5 7 8 7 6 8 12 13 11 8 6 6 6 6 6 5 6 6 5 4 5 6 6 4 3 2 1 0 0 0
Wind_Speed
0 0 0 0 1 1 1 1 1 1 1 1 1 1 1 2 2 2 2 6 7 7 7 7 7 7 6 6 7 7 7 7 7 7 7 7 7 7 7 7 7 7 7
1 1 0 0 0 0 0 0 0 0 1 1 1 0 1 1 1 2 2 3 6 6 7 7 7 7 7 7 7 7 7 8 7 7 7 7 8 8 8 8 7 7 7
1 1 0 0 0 0 0 1 1 1 0 0 0 0 1 1 2 2 2 1 2 5 6 6 6 6 7 8 8 8 8 8 8 8 8 8 8 8 8 8 8 8 7
1 1 0 0 0 0 0 1 1 1 0 0 1 1 0 1 1 1 1 2 2 2 4 5 5 5 6 6 6 7 8 8 8 8 8 8 9 8 8 8 8 7 7
1 1 1 0 0 0 0 0 1 1 1 0 1 1 1 1 1 1 2 2 2 2 2 3 4 5 6 6 7 7 7 8 8 9 9 9 8 8 8 8 8 8 8
2 2 1 1 1 1 0 0 1 1 1 1 0 0 1 1 1 1 2 2 2 2 2 2 2 3 5 6 6 7 7 8 8 10 10 10 9 9 9 9 9 8 8
2 2 1 1 1 1 1 1 1 1 0 1 1 1 2 1 0 1 1 1 2 2 2 2 2 2 2 4 5 6 7 7 8 9 9 10 10 9 9 10 9 9 9
2 2 2 1 1 1 0 1 1 1 0 0 1 1 2 2 1 1 1 1 2 1 2 2 2 2 2 2 3 6 6 6 7 8 9 9 9 9 9 9 9 9 9
2 2 2 2 2 2 2 2 1 2 1 0 1 2 1 2 2 2 1 0 1 1 1 2 2 2 2 2 2 4 6 6 7 8 8 8 8 8 8 9 10 10 10
2 2 2 3 3 2 2 2 2 2 2 1 1 1 1 2 1 2 2 1 1 1 2 2 2 2 2 2 2 3 4 5 6 6 7 7 7 8 8 8 9 8 9
2 2 2 3 3 2 3 3 2 2 2 2 2 1 1 1 1 2 2 2 1 1 1 2 2 2 2 2 3 3 4 3 4 5 6 7 6 7 7 6 7 7 8
1 2 2 2 3 3 3 3 3 3 3 3 2 2 2 2 2 2 2 2 2 2 2 2 2 2 2 2 3 4 4 3 3 3 3 4 4 4 4 5 6 6 6
2 3 2 2 2 3 3 3 3 4 4 4 4 3 3 3 2 2 2 2 2 2 2 2 2 2 2 2 2 4 3 3 3 3 3 3 4 4 4 4 5 5 5
3 3 3 3 3 3 3 3 3 4 3 4 4 4 3 3 3 3 3 3 1 2 2 3 1 2 2 2 3 4 3 4 3 3 3 3 3 4 4 4 3 3 3
3 2 3 3 3 3 3 3 3 4 3 3 4 4 3 3 3 3 3 3 3 2 3 2 2 2 1 2 2 2 2 3 3 3 3 3 3 3 3 3 3 3 3
3 2 3 3 3 3 3 3 3 3 3 3 3 3 4 3 2 3 3 3 3 3 3 2 2 2 1 1 1 1 2 2 3 3 3 3 3 3 3 4 4 3 3
3 3 3 3 3 3 3 3 3 3 3 3 3 3 4 3 3 2 2 3 3 3 3 2 1 1 1 1 1 0 1 2 2 3 3 3 3 3 3 3 3 3 3
3 3 4 4 4 3 3 3 4 3 4 4 4 3 4 3 3 2 2 3 3 3 3 3 2 1 1 2 1 1 0 1 1 1 2 3 3 3 3 3 2 3 3
3 3 3 4 4 4 4 4 4 4 4 4 4 4 4 3 3 2 3 3 3 3 3 3 2 1 1 1 0 0 0 1 1 1 2 2 2 3 3 3 3 3 3
2 3 3 3 4 4 4 4 4 4 4 4 4 4 4 4 4 4 3 3 3 3 2 2 2 1 1 1 1 1 1 0 1 1 1 1 1 2 2 3 3 3 4
2 2 2 3 3 3 3 3 4 4 4 4 3 3 4 4 4 4 3 3 3 3 2 2 2 1 1 1 2 1 2 1 1 1 1 1 1 1 2 2 3 3 3
2 2 2 2 2 3 3 3 3 3 3 3 3 3 3 4 4 5 4 4 5 4 4 3 3 3 4 3 2 2 2 1 2 1 2 2 1 2 2 2 2 3 3
2 2 2 2 3 4 4 3 3 2 3 3 4 3 3 2 2 2 3 3 4 5 6 5 5 5 4 4 4 3 3 3 3 2 2 2 1 2 2 2 2 3 3
2 2 2 2 2 3 3 3 3 2 2 3 3 3 3 3 2 2 2 2 3 3 5 4 5 5 4 4 5 5 4 2 1 1 2 2 2 2 2 2 2 3 3
2 2 2 2 2 3 3 2 1 1 1 2 2 2 2 3 3 3 3 3 2 2 2 2 2 3 3 3 3 3 3 2 2 2 2 2 1 1 1 2 2 3 4
2 1 1 2 2 3 2 1 1 1 1 2 2 2 2 2 3 2 3 3 3 3 1 1 0 0 1 2 4 4 4 3 2 2 2 2 1 1 1 1 1 1 2
Wind_Direction
131 78 51 22 29 35 25 357 8 21 9 346 277 207 218 221 227 226 228 226 224 227 223 217 215 215 214 219 219 216 211 207 203 203 202 202 201 202 201 197 196 198 201
150 138 110 335 330 328 289 334 15 9 4 359 318 244 221 219 223 225 237 241 236 230 225 222 216 217 219 222 222 222 217 214 205 203 208 211 209 206 205 203 203 204 204
156 145 128 203 274 272 114 75 50 55 12 359 320 285 228 226 231 227 227 239 250 239 228 225 222 225 226 225 223 223 221 220 212 211 214 216 211 210 207 205 205 205 205
165 133 127 262 276 92 105 118 122 83 45 321 295 288 256 248 241 219 216 231 244 255 238 233 232 232 235 233 230 227 224 220 213 214 216 217 211 210 208 205 206 208 208
168 150 173 229 192 114 121 192 119 149 171 208 241 250 245 236 234 227 223 237 242 242 242 243 241 241 239 236 233 233 229 225 220 219 219 215 211 209 208 210 212 213 213
173 163 177 200 169 143 131 133 137 134 163 197 250 356 303 278 235 230 236 241 247 242 238 245 249 252 248 248 245 241 237 233 226 222 217 214 214 212 211 215 216 216 218
179 175 196 174 165 164 182 156 133 120 69 123 69 3 347 332 280 253 238 232 246 245 234 232 234 244 258 259 252 249 247 244 232 225 217 216 217 216 216 219 218 216 217
193 197 192 196 175 151 130 145 136 134 255 113 123 68 342 338 342 315 225 223 251 246 238 236 231 239 254 250 251 251 249 253 243 233 222 219 219 217 219 220 220 220 220
215 210 200 191 185 179 194 208 178 174 196 270 145 159 175 255 309 326 335 310 288 247 247 245 237 242 244 243 255 257 249 247 246 238 229 218 215 218 221 222 223 223 223
228 216 202 195 199 193 199 216 196 192 181 215 224 209 209 190 200 305 321 325 312 277 267 258 253 248 241 239 245 249 247 242 245 243 237 225 221 222 223 223 225 222 222
247 231 211 205 210 208 207 210 203 202 198 205 203 194 201 211 199 209 279 303 315 294 270 257 251 252 250 243 244 249 254 257 254 246 244 236 232 231 228 221 224 224 226
258 248 223 215 219 218 217 217 211 212 217 214 212 207 204 204 202 197 230 264 286 292 285 260 245 244 250 250 253 251 248 252 257 259 253 238 226 229 229 226 229 231 232
245 251 243 231 230 229 225 217 211 224 222 221 221 224 221 222 202 193 200 237 268 290 293 266 240 239 246 243 259 260 254 249 250 246 246 232 218 225 227 229 233 235 237
238 242 238 239 238 235 235 220 219 229 222 223 231 224 223 227 212 199 198 195 242 285 285 275 269 243 250 251 249 252 257 250 245 244 244 235 225 227 226 228 225 224 226
245 239 234 239 243 236 230 220 225 231 224 225 231 228 229 227 215 215 208 201 198 245 272 270 267 260 246 245 251 241 240 241 241 240 234 225 216 206 204 212 210 198 193
253 252 245 238 241 240 229 218 232 235 233 239 229 227 233 229 221 216 208 208 207 214 246 247 248 279 277 267 252 227 233 236 232 230 224 213 205 196 194 197 190 191 198
250 249 246 240 241 242 237 225 236 230 232 242 238 232 238 224 218 220 209 203 207 202 231 261 254 279 258 264 296 241 225 221 227 219 211 203 202 194 191 194 196 199 209
256 253 246 238 241 241 233 229 237 239 233 238 239 236 241 229 221 217 210 215 212 207 211 241 250 241 248 247 240 230 271 239 226 206 199 197 194 192 198 202 204 209 217
267 264 249 243 244 241 235 233 230 235 236 236 233 232 236 223 227 223 213 217 219 215 208 216 238 227 241 236 197 269 316 316 250 190 183 195 196 200 205 206 206 211 216
259 256 250 250 249 245 241 237 230 233 237 239 234 228 226 220 224 219 217 222 216 210 203 207 222 224 230 249 186 191 247 258 264 250 244 217 197 204 212 210 210 211 214
250 252 255 260 258 248 249 243 236 235 236 239 236 229 229 224 224 217 215 212 205 209 205 208 218 211 224 225 224 206 221 236 258 243 228 238 218 227 227 228 224 219 216
253 254 252 255 264 267 278 257 239 242 232 227 236 242 242 233 233 229 223 213 203 206 211 212 220 220 231 227 215 205 200 207 244 223 207 244 218 242 249 234 231 222 215
246 258 259 254 263 274 280 269 252 243 237 232 231 240 254 261 235 228 229 224 223 221 209 208 218 226 225 221 208 213 213 216 225 207 191 239 230 250 255 260 244 224 212
241 249 259 256 261 283 285 271 262 247 247 245 238 234 239 258 248 229 227 233 241 239 231 219 221 225 223 220 207 205 206 208 217 217 197 224 233 247 265 254 228 221 220
244 247 257 251 256 281 287 277 263 253 258 268 263 252 242 250 262 238 211 222 247 268 267 233 228 223 219 206 183 159 165 172 213 223 195 208 234 249 246 249 238 222 224
244 253 277 265 252 269 288 279 224 225 256 271 278 274 266 262 272 236 206 204 220 250 267 312 330 281 217 194 181 185 183 183 194 220 194 190 198 199 237 228 229 220 218